Weyburn, Saskatchewan

2:57 AM CST on November 21, 2017 (GMT -0600)
Weyburn

Weather History for CWWF - October, 2012

Change the Weather History Date:

Tuesday, October 16, 2012

  Actual Average Record
Temperature  
Mean Temperature 48 °F -  
Max Temperature 65 °F - - ()
Min Temperature 30 °F - - ()
Degree Days  
Heating Degree Days 18    
Moisture  
Dew Point 41 °F    
Average Humidity 80    
Maximum Humidity 99    
Minimum Humidity 39    
Precipitation  
Precipitation 0.04 in - - ()
Sea Level Pressure  
Sea Level Pressure 29.35 in    
Wind  
Wind Speed 7 mph ()    
Max Wind Speed 16 mph    
Max Gust Speed 21 mph    
T = Trace of Precipitation, MM = Missing Value Source: Averaged Metar Reports

Daily Weather History Graph

Daily Weather History Graph

Search for Another Location

Airport or City:

Trip Planner

Search our weather history database for the weather conditions in past years. The results will help you decide how hot, cold, wet, or windy it might be!

Date:

Astronomy

Oct. 16, 2012 Rise Set
Actual Time 7:19 AM CST 6:01 PM CST
Civil Twilight 6:46 AM CST 6:33 PM CST
Nautical Twilight 6:09 AM CST 7:10 PM CST
Astronomical Twilight 5:32 AM CST 7:47 PM CST
Moon 8:57 AM CST (10/16) 6:33 PM CST (10/16)
Length of Visible Light 11h 47m
Length of Day
10h 42m
New Moon, 2% of the Moon is Illuminated
Oct 16
New Moon
Oct 21
First Quarter
Oct 29
Full
Nov 6
Last Quarter
Nov 13
New

Hourly Weather History & Observations

Time (CST) Temp. Windchill Dew Point Humidity Pressure Visibility Wind Dir Wind Speed Gust Speed Precip Events Conditions
12:00 AM 37.6 °F - 34.9 °F 90% 29.62 in - NW 2.3 mph - N/A   Unknown
1:00 AM 36.9 °F 34.3 °F 35.4 °F 95% 29.62 in - NW 3.5 mph - N/A   Unknown
2:00 AM 35.8 °F - 34.2 °F 94% 29.62 in - West 2.3 mph - N/A   Unknown
3:00 AM 31.3 °F 27.9 °F 30.4 °F 96% 29.60 in - SSW 3.5 mph - N/A   Unknown
4:00 AM 31.8 °F 25.4 °F 31.3 °F 98% 29.55 in - SSE 6.9 mph - N/A   Unknown
5:00 AM 34.5 °F 27.9 °F 34.2 °F 99% 29.53 in - SSE 8.1 mph - N/A   Unknown
6:00 AM 34 °F - 33 °F 96% 29.52 in - SE 4.6 mph - -  
6:00 AM 33.8 °F 29.6 °F 33.3 °F 98% 29.52 in - SE 4.6 mph - N/A   Unknown
7:00 AM 34.2 °F 28.2 °F 33.8 °F 99% 29.50 in - SE 6.9 mph - N/A   Unknown
8:00 AM 39.4 °F 33.2 °F 38.1 °F 95% 29.46 in - SE 9.2 mph - N/A   Unknown
9:00 AM 42.4 °F 36.1 °F 39.9 °F 91% 29.41 in - SE 11.5 mph - N/A   Unknown
10:00 AM 47.8 °F - 41.9 °F 80% 29.39 in - SSE 12.7 mph - N/A   Unknown
11:00 AM 51.1 °F - 42.8 °F 73% 29.35 in - SSE 13.8 mph - N/A   Unknown
12:00 PM 61 °F - 42 °F 39% 29.31 in - South 13.8 mph - -  
12:00 PM 60.6 °F - 42.3 °F 51% 29.31 in - South 13.8 mph - N/A   Unknown
1:00 PM 61.9 °F - 41.5 °F 47% 29.26 in - South 16.1 mph - N/A   Unknown
2:00 PM 64.0 °F - 40.6 °F 42% 29.22 in - South 16.1 mph - N/A   Unknown
3:00 PM 62.6 °F - 41.5 °F 46% 29.21 in - SSW 15.0 mph 20.7 mph N/A   Unknown
4:00 PM 58.8 °F - 45.5 °F 61% 29.18 in - South 11.5 mph - N/A   Unknown
5:00 PM 57.6 °F - 46.4 °F 66% 29.18 in - SSW 6.9 mph - N/A   Unknown
6:00 PM 54 °F - 48 °F 75% 29.18 in - South 8.1 mph - -  
6:00 PM 54.0 °F - 48.4 °F 81% 29.18 in - South 8.1 mph - N/A   Unknown
7:00 PM 52.2 °F - 49.6 °F 91% 29.18 in - South 5.8 mph - N/A   Unknown
8:00 PM 52.2 °F - 49.6 °F 91% 29.17 in - South 9.2 mph - 0.02 in   Unknown
9:00 PM 52.3 °F - 49.1 °F 89% 29.17 in - WSW 8.1 mph - 0.03 in   Unknown
10:00 PM 51.1 °F - 46.0 °F 83% 29.16 in - WSW 4.6 mph - N/A   Unknown
11:00 PM 48.7 °F - 43.5 °F 82% 29.16 in - West 8.1 mph - N/A   Unknown